• MPC Preparation (Info)

  • MPEC 2014-B57 : 2014 BU32

    The following Minor Planet Electronic Circular may be linked-to from your own Web pages, but must not otherwise be redistributed electronically.

    A form allowing access to any MPEC is at the bottom of this page.


    Read MPEC 2014-B56 Read MPEC 2014-B58


    M.P.E.C. 2014-B57                                Issued 2014 Jan. 27, 21:31 UT
    
         The Minor Planet Electronic Circulars contain information on unusual
             minor planets and routine data on comets.  They are published
       on behalf of Commission 20 of the International Astronomical Union by the
              Minor Planet Center, Smithsonian Astrophysical Observatory,
                              Cambridge, MA 02138, U.S.A.
    
                 Prepared using the Tamkin Foundation Computer Network
    
                                  MPC@CFA.HARVARD.EDU
                URL https://www.minorplanetcenter.net/    ISSN 1523-6714
    
                                       2014 BU32
    
    Observations:
         K14B32U* C2014 01 25.39296 09 18 55.373+08 07 53.38         20.8 wLEB057F51
         K14B32U  C2014 01 25.41604 09 19 05.750+08 08 41.24         20.9 wLEB057F51
         K14B32U  C2014 01 25.42754 09 19 10.894+08 09 04.88         21.2 wLEB057F51
         K14B32U  C2014 01 26.41987 09 27 14.14 +08 42 24.5          20.7 RoEB057926
         K14B32U  C2014 01 26.42395 09 27 16.00 +08 42 33.0          20.8 RoEB057926
         K14B32U  C2014 01 26.42803 09 27 17.83 +08 42 40.7          20.9 RoEB057926
         K14B32U KC2014 01 26.99226 09 31 59.06 +09 01 11.3                qEB057J95
         K14B32U KC2014 01 27.00527 09 32 05.09 +09 01 37.0                qEB057J95
         K14B32U KC2014 01 27.02160 09 32 12.54 +09 02 09.8          21.2 RqEB057J95
    
    Observer details:
    926 Tenagra II Observatory.  Observers M. Schwartz, P. R. Holvorcem.  0.81-m
        f/7 Ritchey-Chretien + CCD.
    F51 Pan-STARRS 1, Haleakala.  Observers N. Primak, A. Schultz, T. Goggia,
        M. Willman.  Measurer PS1 Science Consortium.  1.8-m Ritchey-Chretien
        + CCD.
    J95 Great Shefford.  Observer P. Birtwhistle.  0.40-m f/6.0 Schmidt-Cassegrain
        + CCD.
    
    Orbital elements:
    2014 BU32                                                Earth MOID = 0.0718 AU
    Epoch 2013 Nov. 4.0 TT = JDT 2456600.5                  MPC
    M 325.59411              (2000.0)            P               Q
    n   0.41987011     Peri.  352.84823     -0.58282226     -0.81064718
    a   1.7662794      Node   132.78208     +0.74929276     -0.56293447
    e   0.4016365      Incl.    4.39920     +0.31444964     -0.16110847
    P   2.35           H   25.6           G   0.15           U   8
    Residuals in seconds of arc
    140125 F51  0.5+  0.2+    140126 926  0.1+  0.4-    140126 J95  0.3-  0.8+
    140125 F51  0.1-  0.0     140126 926  0.3+  0.0     140127 J95  0.4+  0.1-
    140125 F51  0.4-  0.2-    140126 926  0.0   0.4-    140127 J95  0.2-  0.5-
    
    Ephemeris:
    2014 BU32                a,e,i = 1.77, 0.40, 4                   q = 1.0569
    Date    TT    R. A. (2000) Decl.     Delta      r     Elong.  Phase     V
    2013 12 28    06 31 06.3 -00 43 10   0.1231  1.0970   156.0    21.4    22.3
    ...
    2014 01 12    07 38 31.8 +01 37 36   0.08712 1.0657   159.9    18.5    21.4
    ...
    2014 01 20    08 35 09.4 +05 09 05   0.07711 1.0581   163.5    15.3    21.0
    ...
    2014 01 26    09 23 50.2 +08 28 56   0.07505 1.0569   163.8    15.1    20.9
    2014 01 27    09 32 00.7 +09 02 44   0.07519 1.0570   163.5    15.3    20.9
    2014 01 28    09 40 07.3 +09 36 09   0.07547 1.0573   163.2    15.6    21.0
    ...
    2014 02 03    10 25 51.5 +12 39 38   0.07989 1.0611   160.1    18.4    21.2
    ...
    2014 02 11    11 14 15.9 +15 36 54   0.09207 1.0720   156.6    21.5    21.6
    ...
    2014 02 26    12 04 05.7 +18 11 18   0.1283  1.1089   156.5    20.8    22.4
    
    A. U. Tomatic                (C) Copyright 2014 MPC           M.P.E.C. 2014-B57
    

    Read MPEC 2014-B56 Read MPEC 2014-B58


    MPEC number:

    Enter an MPEC number in one of the following forms:

    • 1997-B01 (the full form)
    • J97B01 (the packed version of the full form)
    • B01 (the abbreviated form)